Flag for Germany Weather past 2 weeks in Schwedt/Oder, Brandenburg, Germany

52 °F


Feels Like: 52 °F
Forecast: 50 / 67 °F
Wind: No wind

Location: Szczecin Airport

Current Time: Oct 5, 2015 at 4:18:45 AM

Latest Report: Oct 5, 2015 at 4:00 AM

Visibility: 2 mi

Pressure: 30.01 "Hg

Humidity: 94%

Dew point: 50 °F

Location of Schwedt/OderLocation

Historic Weather in Schwedt/Oder — Graph


Schwedt/Oder temperature yesterday

Maximum temperature yesterday: 66 °F (at 2:00 PM)
Minimum temperature yesterday: 48 °F (at 7:00 AM)
Average temperature yesterday: 57 °F

Past Weeks' High & Low Weather Summary

High68 °F (Oct 3, 3:00 PM)100% (Sep 20, 3:00 AM)30.72 "Hg (Sep 20, 3:00 AM)
Low34 °F (Oct 3, 7:00 AM)40% (Oct 3, 3:30 PM)29.62 "Hg (Sep 23, 1:30 AM)
Average53 °F81%30.20 "Hg
* Reported Sep 20 3:00 AM — Oct 5 3:00 AM, Schwedt/Oder, Weather by CustomWeather, © 2015

Note: Actual official high and low records may vary slightly from our data, if they occured in-between our weather recording intervals... More about our weather records


Schwedt/Oder weather history for previous 24 hours

Time TempWeatherWind HumidityBarometerVisibility
3:00 AM
Mon, Oct 5
50 °FFog.No wind94%30.01 "Hg2 mi
2:30 AM50 °FFog.No wind94%30.01 "Hg2 mi
2:00 AM50 °FFog.No wind94%29.98 "Hg2 mi
1:30 AM50 °FClear.No wind94%29.98 "Hg4 mi
1:00 AM50 °FClear.No wind94%29.98 "Hg5 mi
12:30 AM50 °FClear.No wind94%29.98 "Hg4 mi
12:00 AM50 °FClear.No wind94%29.98 "Hg4 mi
11:00 PM
Sun, Oct 4
52 °FClear.No wind88%29.98 "Hg5 mi
10:30 PM52 °FClear.No wind94%29.98 "Hg5 mi
10:00 PM52 °FClear.No wind94%29.98 "Hg5 mi
9:30 PM54 °FClear.No wind88%29.98 "Hg5 mi
9:00 PM52 °FClear.No wind94%29.98 "Hg5 mi
8:30 PM54 °FClear.No wind88%29.98 "Hg5 mi
8:00 PM54 °FClear.No wind94%29.98 "Hg5 mi
7:30 PM55 °FSunny.No wind88%29.95 "Hg10 mi
7:00 PM57 °FSunny.No wind82%29.95 "Hg10 mi
6:30 PM59 °FSunny.No wind77%29.95 "Hg10 mi
6:00 PM63 °FSunny.2 mph68%29.95 "Hg10 mi
5:30 PM64 °FPassing clouds.3 mph64%29.95 "HgN/A
5:00 PM66 °FSunny.6 mph60%29.95 "Hg10 mi
4:30 PM66 °FSunny.5 mph60%29.95 "Hg10 mi
4:00 PM66 °FPassing clouds.6 mph60%29.95 "HgN/A
3:30 PM66 °FSunny.5 mph56%29.92 "Hg10 mi
3:00 PM66 °FPassing clouds.7 mph56%29.92 "HgN/A
2:30 PM66 °FSunny.7 mph56%29.92 "Hg10 mi
2:00 PM66 °FPassing clouds.6 mph56%29.95 "HgN/A
1:30 PM64 °FSunny.9 mph56%29.92 "Hg10 mi
1:00 PM64 °FPassing clouds.6 mph60%29.92 "HgN/A
12:30 PM63 °FSunny.6 mph68%29.92 "Hg10 mi
12:00 PM61 °FPassing clouds.6 mph68%29.92 "HgN/A
11:30 AM63 °FPassing clouds.5 mph64%29.92 "HgN/A
11:00 AM61 °FPassing clouds.3 mph72%29.92 "HgN/A
10:30 AM55 °FSunny.3 mph82%29.92 "Hg10 mi
10:00 AM55 °FSunny.2 mph82%29.92 "Hg10 mi
9:30 AM55 °FSunny.2 mph77%29.92 "Hg10 mi
9:00 AM55 °FSunny.2 mph77%29.92 "Hg10 mi
8:30 AM54 °FSunny.No wind77%29.92 "Hg10 mi
8:00 AM48 °FClear.1 mph94%29.92 "Hg10 mi
7:30 AM48 °FClear.3 mph87%29.89 "Hg10 mi
7:00 AM48 °FClear.1 mph87%29.89 "Hg10 mi
6:00 AM52 °FClear.2 mph82%29.92 "Hg10 mi
5:30 AM52 °FClear.2 mph82%29.92 "Hg10 mi
5:00 AM52 °FClear.2 mph82%29.92 "Hg10 mi
4:30 AM52 °FClear.3 mph82%29.89 "Hg10 mi
4:00 AM52 °FClear.5 mph82%29.89 "Hg10 mi
Weather by CustomWeather, © 2015

See weather overviewHow to use our weather pages